This is the latest recevied weather packets stored in our database for station/object PY5KT-13. If no packets are shown the sender has not sent any weather packets the latest 10 day(s).
| Time | Temp. | Humidity | Pressure | Rain* | Wind** | Luminosity | Snow |
|---|---|---|---|---|---|---|---|
| 1778068647 | 22.22° C | 78% | 1025 hPa | 0 mm | - | 327 W/m² | - |
| 1778068345 | 22.78° C | 79% | 1024.9 hPa | 0 mm | - | 318 W/m² | - |
| 1778068043 | 22.78° C | 76% | 1024.9 hPa | 0 mm | - | 319 W/m² | - |
| 1778067742 | 23.89° C | 73% | 1024.8 hPa | 0 mm | - | 306 W/m² | - |
| 1778067440 | 22.22° C | 80% | 1024.8 hPa | 0 mm | - | 289 W/m² | - |
| 1778067138 | 21.11° C | 81% | 1024.8 hPa | 0 mm | - | 274 W/m² | - |
| 1778066837 | 22.78° C | 75% | 1024.7 hPa | 0 mm | - | 257 W/m² | - |
| 1778066535 | 22.22° C | 79% | 1024.7 hPa | 0 mm | - | 250 W/m² | - |
| 1778066233 | 21.11° C | 80% | 1024.6 hPa | 0 mm | - | 235 W/m² | - |
| 1778065932 | 21.67° C | 83% | 1024.7 hPa | 0 mm | - | 220 W/m² | - |
| 1778065630 | 21.67° C | 85% | 1024.6 hPa | 0 mm | - | 204 W/m² | - |
| 1778065329 | 20.56° C | 99% | 1024.5 hPa | 0 mm | - | 189 W/m² | - |
| 1778065027 | 18.33° C | 99% | 1024.5 hPa | 0 mm | - | 174 W/m² | - |
| 1778064725 | 17.22° C | 99% | 1024.4 hPa | 0 mm | - | 160 W/m² | - |
| 1778064424 | 15.56° C | 99% | 1024.3 hPa | 0 mm | - | 145 W/m² | - |
| 1778064122 | 15° C | 99% | 1024.2 hPa | 0 mm | - | 110 W/m² | - |
| 1778063821 | 14.44° C | 99% | 1024.1 hPa | 0 mm | - | 68 W/m² | - |
| 1778063519 | 13.89° C | 99% | 1024.2 hPa | 0 mm | - | 63 W/m² | - |
| 1778063217 | 13.33° C | 99% | 1024.1 hPa | 0 mm | - | 21 W/m² | - |
| 1778062916 | 13.33° C | 99% | 1024 hPa | 0 mm | - | 20 W/m² | - |
| 1778062614 | 13.33° C | 99% | 1023.9 hPa | 0 mm | - | 18 W/m² | - |
| 1778062313 | 12.78° C | 99% | 1024 hPa | 0 mm | - | 16 W/m² | - |
| 1778062011 | 12.78° C | 99% | 1024 hPa | 0 mm | - | 14 W/m² | - |
| 1778061710 | 12.78° C | 99% | 1024 hPa | 0 mm | - | 12 W/m² | - |
| 1778061408 | 12.78° C | 99% | 1023.9 hPa | 0 mm | - | 10 W/m² | - |
* Rain latest hour (hover to see other rain measurements)
** Current wind speed in m/s (hover to see current wind gust speed)